Location: Staunton
(38.1490°N, 79.0720°W)
Time: 03:28:03
(UTC-04:00)

ISS - Pass Details

Date: 18 September 2017
Orbit: 401 x 407 km, 51.6° (Epoch: 23 September)

Event Time Altitude Azimuth Distance (km) Brightness Sun altitude
Exits shadow 04:33:12 13° 25° (NNE) 1,314 -0.7 -28.6°
Drops below altitude 10° 04:34:28 10° 48° (NE) 1,468 -0.1 -28.4°
Sets 04:37:29 0° 78° (ENE) 2,326 1.2 -27.9°
